Voltar ao catálogo

STARLINK-38059

AtivoComunicaçõesSSO
NORAD 69714·PAYLOAD·🇺🇸 United States

Lançado Jun 28, 2026 de Vandenberg Space Force Base

Loading…

Próximas Passagens (próximas 24 horas)

TLE

AtualizadoSource: CelesTrak SupGP

Época: Sep 15, 2026, 04:06 UTC

1 69714C 26147L   26258.17131944 -.00048666  00000+0 -15109-2 0  2587
2 69714  97.2836 294.5956 0000913 102.0037 359.9615 15.33459786    10

Acompanhe STARLINK-38059 em tempo real com AllMySat

Download on the App Store